Weather History for PAIN - January, 2014

Change the Weather History Date:

Wednesday, January 29, 2014

  Actual Average Record
Temperature  
Mean Temperature 26 °F -  
Max Temperature 35 °F 13 °F 42 °F (2007)
Min Temperature 17 °F -7 °F -49 °F (2012)
Degree Days  
Heating Degree Days 39    
Moisture  
Dew Point 24 °F    
Average Humidity 85    
Maximum Humidity 100    
Minimum Humidity 60    
Precipitation  
Precipitation 0.00 in - - ()
Sea Level Pressure  
Sea Level Pressure 30.04 in    
Wind  
Wind Speed 3 mph (SW)    
Max Wind Speed 8 mph    
Max Gust Speed -    
Visibility 10 miles    
Events      
Averages and records for this station are not official NWS values.
T = Trace of Precipitation, MM = Missing Value Source: NWS Daily Summary

Daily Weather History Graph

Daily Weather History Graph

Search for Another Location

Airport or City:

Trip Planner

Search our weather history database for the weather conditions in past years. The results will help you decide how hot, cold, wet, or windy it might be!

Date:

Astronomy

Jan. 29, 2014 Rise Set
Actual Time 9:40 AM AKST 4:37 PM AKST
Civil Twilight 8:43 AM AKST 5:34 PM AKST
Nautical Twilight 7:45 AM AKST 6:33 PM AKST
Astronomical Twilight 6:50 AM AKST 7:28 PM AKST
Moon 8:26 AM AKST (1/29) 3:53 PM AKST (1/29)
Length of Visible Light 8h 51m
Length of Day
6h 56m
Waning Crescent, 2% of the Moon is Illuminated
Jan 29
Waning Crescent
Jan 30
New
Feb 6
First Quarter
Feb 14
Full
Feb 22
Last Quarter

Hourly Weather History & Observations

Time (AKST) Temp. Windchill Dew Point Humidity Pressure Visibility Wind Dir Wind Speed Gust Speed Precip Events Conditions
12:16 AM 30.2 °F - 28.4 °F 93% 29.97 in 10.0 mi Calm Calm - N/A   Clear
12:36 AM 35.6 °F 31.7 °F 28.4 °F 75% 29.97 in 10.0 mi SSW 4.6 mph - N/A   Clear
12:56 AM 35.6 °F 31.7 °F 28.4 °F 75% 29.98 in 10.0 mi SSW 4.6 mph - N/A   Clear
1:16 AM 33.8 °F 29.6 °F 28.4 °F 81% 29.99 in 10.0 mi SE 4.6 mph - N/A   Partly Cloudy
1:36 AM 33.8 °F 29.6 °F 28.4 °F 81% 30.00 in 10.0 mi South 4.6 mph - N/A   Clear
1:56 AM 32.0 °F 27.5 °F 28.4 °F 87% 30.00 in 10.0 mi SW 4.6 mph - N/A   Clear
2:16 AM 32.0 °F 27.5 °F 28.4 °F 87% 30.00 in 10.0 mi SSW 4.6 mph - N/A   Clear
2:36 AM 30.2 °F 25.4 °F 26.6 °F 86% 30.01 in 10.0 mi SW 4.6 mph - N/A   Clear
2:56 AM 28.4 °F 24.6 °F 26.6 °F 93% 30.01 in 10.0 mi WSW 3.5 mph - N/A   Clear
3:16 AM 28.4 °F - 26.6 °F 93% 30.01 in 10.0 mi Calm Calm - N/A   Clear
3:36 AM 28.4 °F - 26.6 °F 93% 30.01 in 10.0 mi Calm Calm - N/A   Clear
3:56 AM 28.4 °F - 26.6 °F 93% 30.02 in 10.0 mi Calm Calm - N/A   Clear
4:16 AM 26.6 °F - 24.8 °F 93% 30.02 in 10.0 mi Calm Calm - N/A   Clear
4:36 AM 26.6 °F - 24.8 °F 93% 30.02 in 10.0 mi Calm Calm - N/A   Clear
4:56 AM 26.6 °F 22.6 °F 26.6 °F 100% 30.01 in 10.0 mi SW 3.5 mph - N/A   Clear
5:16 AM 28.4 °F 23.3 °F 26.6 °F 93% 30.01 in 10.0 mi South 4.6 mph - N/A   Clear
5:36 AM 30.2 °F 25.4 °F 28.4 °F 93% 30.00 in 10.0 mi SSW 4.6 mph - N/A   Clear
5:56 AM 30.2 °F 25.4 °F 28.4 °F 93% 30.01 in 10.0 mi SW 4.6 mph - N/A   Clear
6:16 AM 30.2 °F 26.7 °F 26.6 °F 86% 30.00 in 10.0 mi SSW 3.5 mph - N/A   Clear
6:36 AM 30.2 °F 25.4 °F 26.6 °F 86% 30.01 in 10.0 mi SW 4.6 mph - N/A   Clear
6:56 AM 28.4 °F - 26.6 °F 93% 30.00 in 10.0 mi Calm Calm - N/A   Clear
7:16 AM 30.2 °F 25.4 °F 26.6 °F 86% 30.01 in 10.0 mi South 4.6 mph - N/A   Clear
7:36 AM 30.2 °F - 26.6 °F 86% 30.01 in 10.0 mi Calm Calm - N/A   Clear
7:56 AM 30.2 °F - 26.6 °F 86% 30.02 in 10.0 mi Calm Calm - N/A   Clear
8:16 AM 30.2 °F - 26.6 °F 86% 30.02 in 10.0 mi Calm Calm - N/A   Clear
8:36 AM 30.2 °F 24.3 °F 26.6 °F 86% 30.02 in 10.0 mi West 5.8 mph - N/A   Clear
8:56 AM 30.2 °F 22.6 °F 26.6 °F 86% 30.03 in 10.0 mi WSW 8.1 mph - N/A   Clear
9:16 AM 32.0 °F 27.5 °F 24.8 °F 75% 30.03 in 10.0 mi WSW 4.6 mph - N/A   Clear
9:36 AM 30.2 °F 25.4 °F 24.8 °F 80% 30.03 in 10.0 mi SSW 4.6 mph - N/A   Clear
9:56 AM 30.2 °F - 24.8 °F 80% 30.04 in 10.0 mi Calm Calm - N/A   Clear
10:16 AM 28.4 °F 23.3 °F 24.8 °F 86% 30.04 in 10.0 mi WSW 4.6 mph - N/A   Clear
10:36 AM 28.4 °F 23.3 °F 24.8 °F 86% 30.04 in 10.0 mi SW 4.6 mph - N/A   Clear
10:56 AM 30.2 °F 25.4 °F 26.6 °F 86% 30.04 in 10.0 mi West 4.6 mph - N/A   Clear
11:16 AM 32.0 °F 28.7 °F 24.8 °F 75% 30.04 in 10.0 mi SW 3.5 mph - N/A   Clear
11:36 AM 30.2 °F 25.4 °F 24.8 °F 80% 30.04 in 10.0 mi WSW 4.6 mph - N/A   Clear
11:56 AM 33.8 °F 29.6 °F 24.8 °F 70% 30.05 in 10.0 mi SW 4.6 mph - N/A   Clear
12:16 PM 33.8 °F - 24.8 °F 70% 30.05 in 10.0 mi Calm Calm - N/A   Clear
12:36 PM 33.8 °F - 24.8 °F 70% 30.05 in 10.0 mi Calm Calm - N/A   Clear
12:56 PM 33.8 °F 29.6 °F 24.8 °F 70% 30.05 in 10.0 mi South 4.6 mph - N/A   Clear
1:16 PM 33.8 °F 29.6 °F 24.8 °F 70% 30.05 in 10.0 mi South 4.6 mph - N/A   Clear
1:36 PM 33.8 °F 30.8 °F 24.8 °F 70% 30.05 in 10.0 mi South 3.5 mph - N/A   Clear
1:56 PM 33.8 °F 28.6 °F 24.8 °F 70% 30.05 in 10.0 mi South 5.8 mph - N/A   Clear
2:16 PM 35.6 °F 31.7 °F 24.8 °F 65% 30.04 in 10.0 mi ESE 4.6 mph - N/A   Clear
2:36 PM 35.6 °F - 23.0 °F 60% 30.04 in 10.0 mi Calm Calm - N/A   Clear
2:56 PM 33.8 °F - 23.0 °F 65% 30.05 in 10.0 mi Calm Calm - N/A   Clear
3:16 PM 30.2 °F 26.7 °F 24.8 °F 80% 30.05 in 10.0 mi SSW 3.5 mph - N/A   Clear
3:36 PM 30.2 °F 25.4 °F 24.8 °F 80% 30.04 in 10.0 mi SSW 4.6 mph - N/A   Clear
3:56 PM 28.4 °F - 23.0 °F 80% 30.05 in 10.0 mi Calm Calm - N/A   Clear
4:16 PM 26.6 °F 20.0 °F 21.2 °F 80% 30.05 in 10.0 mi SW 5.8 mph - N/A   Clear
4:36 PM 26.6 °F 22.6 °F 21.2 °F 80% 30.05 in 10.0 mi SSW 3.5 mph - N/A   Clear
4:56 PM 26.6 °F - 21.2 °F 80% 30.05 in 10.0 mi Calm Calm - N/A   Clear
5:16 PM 24.8 °F - 19.4 °F 80% 30.05 in 10.0 mi Calm Calm - N/A   Clear
5:36 PM 23.0 °F 18.4 °F 19.4 °F 86% 30.06 in 10.0 mi SW 3.5 mph - N/A   Clear
5:56 PM 21.2 °F 16.4 °F 19.4 °F 93% 30.06 in 10.0 mi SW 3.5 mph - N/A   Clear
6:16 PM 24.8 °F 17.9 °F 21.2 °F 86% 30.06 in 10.0 mi SW 5.8 mph - N/A   Clear
6:36 PM 24.8 °F 20.5 °F 19.4 °F 80% 30.06 in 10.0 mi SW 3.5 mph - N/A   Clear
6:56 PM 21.2 °F 13.6 °F 19.4 °F 93% 30.06 in 10.0 mi SW 5.8 mph - N/A   Clear
7:16 PM 21.2 °F 16.4 °F 19.4 °F 93% 30.06 in 10.0 mi South 3.5 mph - N/A   Clear
7:36 PM 23.0 °F 17.0 °F 19.4 °F 86% 30.06 in 10.0 mi SSW 4.6 mph - N/A   Clear
7:56 PM 24.8 °F 19.1 °F 21.2 °F 86% 30.07 in 10.0 mi WSW 4.6 mph - N/A   Clear
8:16 PM 21.2 °F 14.9 °F 19.4 °F 93% 30.07 in 10.0 mi SW 4.6 mph - N/A   Clear
8:36 PM 21.2 °F 13.6 °F 19.4 °F 93% 30.07 in 10.0 mi WSW 5.8 mph - N/A   Clear
8:56 PM 21.2 °F - 19.4 °F 93% 30.07 in 10.0 mi Calm Calm - N/A   Clear
9:16 PM 19.4 °F 14.3 °F 17.6 °F 93% 30.08 in 10.0 mi SW 3.5 mph - N/A   Clear
9:36 PM 19.4 °F 14.3 °F 17.6 °F 93% 30.07 in 10.0 mi SSW 3.5 mph - N/A   Clear
9:56 PM 19.4 °F - 17.6 °F 93% 30.08 in 10.0 mi Calm Calm - N/A   Clear
10:16 PM 19.4 °F 14.3 °F 17.6 °F 93% 30.08 in 10.0 mi SW 3.5 mph - N/A   Clear
10:36 PM 19.4 °F - 17.6 °F 93% 30.08 in 10.0 mi Calm Calm - N/A   Clear
10:56 PM 17.6 °F 12.3 °F 17.6 °F 100% 30.09 in 10.0 mi SW 3.5 mph - N/A   Clear
11:16 PM 17.6 °F - 17.6 °F 100% 30.09 in 10.0 mi Calm Calm - N/A   Clear
11:36 PM 17.6 °F - 15.8 °F 93% 30.09 in 10.0 mi Calm Calm - N/A   Clear
11:56 PM 17.6 °F - 15.8 °F 93% 30.10 in 10.0 mi Calm Calm - N/A   Clear